TimeEDT,TemperatureF,Dew PointF,Humidity,Sea Level PressureIn,VisibilityMPH,Wind Direction,Wind SpeedMPH,Gust SpeedMPH,PrecipitationIn,Events,Conditions,WindDirDegrees,DateUTC
12:15 AM,49.3,48.7,98,30.20,10.0,Calm,Calm,-,N/A,,Clear,0,2013-10-13 04:15:00
12:35 AM,48.9,48.4,98,30.20,5.0,Calm,Calm,-,N/A,,Clear,0,2013-10-13 04:35:00
12:55 AM,48.7,48.2,98,30.20,5.0,Calm,Calm,-,N/A,,Clear,0,2013-10-13 04:55:00
1:15 AM,48.2,47.8,99,30.20,7.0,Calm,Calm,-,N/A,,Clear,0,2013-10-13 05:15:00
1:35 AM,48.2,47.5,97,30.20,10.0,Calm,Calm,-,N/A,,Mostly Cloudy,0,2013-10-13 05:35:00
1:55 AM,48.2,47.8,99,30.20,10.0,Calm,Calm,-,N/A,,Overcast,0,2013-10-13 05:55:00
2:15 AM,48.7,48.4,99,30.20,7.0,Calm,Calm,-,N/A,,Overcast,0,2013-10-13 06:15:00
2:35 AM,48.4,48.2,99,30.20,10.0,Calm,Calm,-,N/A,,Overcast,0,2013-10-13 06:35:00
2:55 AM,49.6,49.3,99,30.21,7.0,Calm,Calm,-,N/A,,Overcast,0,2013-10-13 06:55:00
3:15 AM,50.2,49.8,99,30.20,7.0,Calm,Calm,-,N/A,,Overcast,0,2013-10-13 07:15:00
3:35 AM,50.9,50.5,99,30.20,7.0,Calm,Calm,-,N/A,,Overcast,0,2013-10-13 07:35:00
3:55 AM,51.6,51.1,98,30.21,10.0,Calm,Calm,-,N/A,,Overcast,0,2013-10-13 07:55:00
4:15 AM,51.4,51.1,99,30.21,7.0,Calm,Calm,-,N/A,,Overcast,0,2013-10-13 08:15:00
4:35 AM,51.8,51.4,99,30.21,10.0,Calm,Calm,-,N/A,,Overcast,0,2013-10-13 08:35:00
4:55 AM,51.8,51.6,99,30.21,10.0,Calm,Calm,-,N/A,,Overcast,0,2013-10-13 08:55:00
5:15 AM,52.2,52.0,99,30.21,10.0,Calm,Calm,-,N/A,,Overcast,0,2013-10-13 09:15:00
5:35 AM,52.2,52.0,99,30.21,10.0,Calm,Calm,-,N/A,,Overcast,0,2013-10-13 09:35:00
5:55 AM,52.3,52.2,99,30.21,10.0,Calm,Calm,-,N/A,,Overcast,0,2013-10-13 09:55:00
6:15 AM,52.7,52.2,98,30.22,7.0,Calm,Calm,-,N/A,,Overcast,0,2013-10-13 10:15:00
6:35 AM,52.7,52.2,98,30.23,10.0,Calm,Calm,-,N/A,,Overcast,0,2013-10-13 10:35:00
6:55 AM,52.7,52.7,100,30.23,10.0,Calm,Calm,-,N/A,,Overcast,0,2013-10-13 10:55:00
7:15 AM,53.1,52.7,99,30.23,10.0,Calm,Calm,-,N/A,,Overcast,0,2013-10-13 11:15:00
7:35 AM,52.9,52.7,99,30.23,7.0,Calm,Calm,-,N/A,,Overcast,0,2013-10-13 11:35:00
7:55 AM,53.1,52.9,99,30.23,10.0,Calm,Calm,-,N/A,,Overcast,0,2013-10-13 11:55:00
8:15 AM,53.1,52.9,99,30.24,10.0,Calm,Calm,-,N/A,,Overcast,0,2013-10-13 12:15:00
8:35 AM,53.6,53.2,99,30.25,10.0,Calm,Calm,-,N/A,,Overcast,0,2013-10-13 12:35:00
8:55 AM,53.6,53.6,100,30.25,10.0,Calm,Calm,-,N/A,,Overcast,0,2013-10-13 12:55:00
9:15 AM,54.1,54.0,99,30.26,10.0,Calm,Calm,-,N/A,,Overcast,0,2013-10-13 13:15:00
9:35 AM,54.9,54.7,99,30.26,10.0,Calm,Calm,-,N/A,,Overcast,0,2013-10-13 13:35:00
9:55 AM,56.8,55.4,95,30.26,10.0,Calm,Calm,-,N/A,,Overcast,0,2013-10-13 13:55:00
10:15 AM,59.2,54.9,86,30.26,10.0,Calm,Calm,-,N/A,,Overcast,0,2013-10-13 14:15:00
10:35 AM,60.1,54.9,83,30.27,10.0,Calm,Calm,-,N/A,,Overcast,0,2013-10-13 14:35:00
10:55 AM,61.0,54.5,79,30.27,10.0,Calm,Calm,-,N/A,,Overcast,0,2013-10-13 14:55:00
11:15 AM,62.1,54.5,76,30.27,10.0,Calm,Calm,-,N/A,,Overcast,0,2013-10-13 15:15:00
11:55 AM,64.0,55.4,73,30.26,10.0,Calm,Calm,-,N/A,,Overcast,0,2013-10-13 15:55:00
12:15 PM,65.3,55.8,71,30.26,10.0,Calm,Calm,-,N/A,,Overcast,0,2013-10-13 16:15:00
12:35 PM,66.7,56.5,70,30.26,10.0,Calm,Calm,-,N/A,,Overcast,0,2013-10-13 16:35:00
12:55 PM,68.4,55.0,62,30.25,10.0,North,4.6,-,N/A,,Overcast,350,2013-10-13 16:55:00
1:15 PM,69.3,55.2,61,30.25,10.0,NNW,5.8,-,N/A,,Overcast,330,2013-10-13 17:15:00
1:35 PM,70.0,54.3,57,30.24,10.0,NW,5.8,-,N/A,,Overcast,320,2013-10-13 17:35:00
1:55 PM,70.2,54.1,57,30.24,10.0,NNW,5.8,-,N/A,,Overcast,330,2013-10-13 17:55:00
2:15 PM,70.0,54.3,57,30.23,10.0,NW,4.6,-,N/A,,Overcast,310,2013-10-13 18:15:00
2:35 PM,70.7,55.0,58,30.23,10.0,NW,4.6,-,N/A,,Overcast,310,2013-10-13 18:35:00
2:55 PM,70.7,54.1,56,30.22,10.0,NNW,3.5,-,N/A,,Overcast,340,2013-10-13 18:55:00
3:15 PM,70.5,55.2,58,30.22,10.0,NW,3.5,-,N/A,,Overcast,320,2013-10-13 19:15:00
3:35 PM,70.3,55.9,60,30.21,10.0,Calm,Calm,-,N/A,,Overcast,0,2013-10-13 19:35:00
3:55 PM,70.7,55.9,59,30.21,10.0,North,4.6,-,N/A,,Overcast,360,2013-10-13 19:55:00
4:15 PM,70.9,55.8,59,30.21,10.0,North,4.6,-,N/A,,Overcast,350,2013-10-13 20:15:00
4:35 PM,70.2,55.4,59,30.21,10.0,Calm,Calm,-,N/A,,Overcast,0,2013-10-13 20:35:00
4:55 PM,70.2,56.1,61,30.21,10.0,WNW,3.5,-,N/A,,Overcast,300,2013-10-13 20:55:00
5:15 PM,69.8,56.3,62,30.21,10.0,NNW,3.5,-,N/A,,Overcast,340,2013-10-13 21:15:00
5:35 PM,69.4,56.3,63,30.21,10.0,NNW,4.6,-,N/A,,Overcast,330,2013-10-13 21:35:00
5:55 PM,69.1,56.3,64,30.21,10.0,WNW,3.5,-,N/A,,Overcast,300,2013-10-13 21:55:00
6:15 PM,68.9,56.7,65,30.22,10.0,Calm,Calm,-,N/A,,Overcast,0,2013-10-13 22:15:00
6:35 PM,68.5,56.8,66,30.22,10.0,NW,4.6,-,N/A,,Overcast,310,2013-10-13 22:35:00
6:55 PM,68.0,56.7,67,30.22,10.0,WNW,3.5,-,N/A,,Overcast,300,2013-10-13 22:55:00
7:15 PM,67.6,56.5,67,30.23,10.0,NW,4.6,-,N/A,,Overcast,310,2013-10-13 23:15:00
7:35 PM,66.0,57.0,73,30.23,10.0,Calm,Calm,-,N/A,,Overcast,0,2013-10-13 23:35:00
7:55 PM,63.5,58.1,83,30.24,10.0,Calm,Calm,-,N/A,,Overcast,0,2013-10-13 23:55:00
8:15 PM,62.4,58.1,86,30.24,10.0,Calm,Calm,-,N/A,,Overcast,0,2013-10-14 00:15:00
8:35 PM,61.7,58.3,89,30.24,10.0,Calm,Calm,-,N/A,,Overcast,0,2013-10-14 00:35:00
8:55 PM,61.7,58.3,89,30.25,10.0,SE,3.5,-,N/A,,Overcast,140,2013-10-14 00:55:00
9:15 PM,61.3,58.1,89,30.25,10.0,Calm,Calm,-,N/A,,Overcast,0,2013-10-14 01:15:00
9:35 PM,61.0,58.3,91,30.26,10.0,Calm,Calm,-,N/A,,Overcast,0,2013-10-14 01:35:00
9:55 PM,61.0,58.5,91,30.26,10.0,Calm,Calm,-,N/A,,Overcast,0,2013-10-14 01:55:00
10:15 PM,60.8,58.6,93,30.27,10.0,Calm,Calm,-,N/A,,Overcast,0,2013-10-14 02:15:00
10:35 PM,60.3,58.5,94,30.26,10.0,Calm,Calm,-,N/A,,Overcast,0,2013-10-14 02:35:00
10:55 PM,60.1,58.3,94,30.27,10.0,Calm,Calm,-,N/A,,Overcast,0,2013-10-14 02:55:00
11:15 PM,59.9,59.2,97,30.26,10.0,Calm,Calm,-,N/A,,Overcast,0,2013-10-14 03:15:00
11:35 PM,59.4,58.8,98,30.26,10.0,Calm,Calm,-,N/A,,Overcast,0,2013-10-14 03:35:00
11:55 PM,58.3,57.7,98,30.26,7.0,Calm,Calm,-,N/A,,Mostly Cloudy,0,2013-10-14 03:55:00